{"data":{"norad_id":47376,"epoch":"2026-09-19T23:08:00.233376Z","epoch_age_seconds":68210,"freshness":"FRESH","line1":"1 47376U 21005AD  26262.96389159  .00000058  00000+0  13631-4 0  9993","line2":"2 47376  53.1588 238.4154 0001272  92.7876 267.3271 15.31703998312793","mean_motion":15.31703998,"eccentricity":0.0001272,"inclination_deg":53.1588,"raan_deg":238.4154,"arg_perigee_deg":92.7876,"mean_anomaly_deg":267.3271,"bstar":1.3631e-5,"rev_number":31279,"period_min":94.012942571166,"perigee_km":469.85690178376,"apogee_km":471.59925305946,"semimajor_km":6848.8650774216,"source":"CELESTRAK","updated_at":"2026-09-20T09:00:38.591951Z"}}